Regional Weather Roundup
Issued by NWS Sioux Falls, SD

Home | Current Version | Previous Version | Text Only | Print | Product List | Glossary On
Versions: 1 2 3 4 5 6 7 8 9 10 11 12 13 14 15 16 17 18 19 20 21 22 23 24 25 26 27 28 29 30 31 32 33 34 35 36 37 38 39 40 41 42 43 44 45 46 47 48 49 50
000
ASUS43 KFSD 131702
RWRFSD

WEATHER ROUNDUP FOR SE SOUTH DAKOTA/SW MINNESOTA/NW IOWA
NATIONAL WEATHER SERVICE SIOUX FALLS SD
1100 AM CST WED DEC 13 2017

NOTE: "FAIR" INDICATES FEW OR NO CLOUDS BELOW 12,000 FEET WITH NO
SIGNIFICANT WEATHER AND OR OBSTRUCTIONS TO VISIBILITY.


SDZ038>040-050-052>070-131800-
SOUTHEAST SOUTH DAKOTA

CITY           SKY/WX    TMP DP  RH WIND       PRES   REMARKS
BROOKINGS      CLOUDY    36  28  73 NW29      29.72S
CHAMBERLAIN    MOSUNNY   44  31  60 NW28G37   29.92R
HURON          CLOUDY    39  30  70 NW30G37   29.84R
MADISON        CLOUDY    36  36 100 N21G35    29.76R
MITCHELL       CLOUDY    40  30  67 N24G36    29.87R
SIOUX FALLS    CLOUDY    39  32  76 NW28G35   29.77R
WINNER         FAIR      45  27  49 NW31G41   29.95R
YANKTON        MOSUNNY   43  30  60 NW32G43   29.81R
$$

MNZ071-072-080-081-089-090-097-098-131800-
SOUTHWEST MINNESOTA

CITY           SKY/WX    TMP DP  RH WIND       PRES   REMARKS
FAIRMONT       CLOUDY    31  27  85 NW40G48   29.61R WCI  14
JACKSON        CLOUDY    32  28  86 MISG      29.65R
LUVERNE        CLOUDY    36  32  87 N18G25    29.73R
MARSHALL       CLOUDY    32  28  85 N35G40    29.69R WCI  17
MONTEVIDEO     CLOUDY    32  28  86 N28G35    29.70R WCI  18
PIPESTONE      CLOUDY    36  30  80 N26G37    29.70R
REDWOOD FALLS  CLOUDY    32  24  72 NW23G39   29.66R WCI  19
WINDOM           N/A     32  19  59 NW45G51   29.64R WCI  15
WORTHINGTON    CLOUDY    34  30  85 NW31G43   29.69R WCI  20
$$

IAZ001>003-012>014-020>022-031-032-NEZ013-014-SDZ071-131800-
NORTHWEST IOWA

CITY           SKY/WX    TMP DP  RH WIND       PRES   REMARKS
CHEROKEE       CLOUDY    40  34  76 N26G32    29.70R
DENISON        CLOUDY    45  32  61 NW32G41   29.71R
ESTHERVILLE    CLOUDY    32  28  85 NW33G49   29.65R WCI  17
LE MARS        CLOUDY    41  32  70 NW22G37   29.75R
ORANGE CITY    CLOUDY    41  36  81 N20G29    29.72R
SHELDON        CLOUDY    37  34  87 NW28G36   29.70R
SIOUX CITY     PTSUNNY   43  31  62 NW33G49   29.74R
SPENCER        CLOUDY    36  30  79 NW33G45   29.67R
STORM LAKE       N/A     39  32  75 NW38G51   29.66R
$$

ABBREVIATIONS USED IN REMARKS
   TC - TEMPERATURE IN CELSIUS
  WCI - WIND CHILL INDEX
   HX - HEAT INDEX
  VSB - VISIBILITY





USA.gov is the U.S. government's official web portal to all federal, state and local government web resources and services.